Location: Amsterdam
(30.7274°N, 84.4357°W)
Time: 19:44:25
(UTC+00:00)

Altair - Pass Details

Date: 10 August 2024
Orbit: 1501 x 1682 km, 47.2° (Epoch: 07 September)

Event Time Altitude Azimuth Distance (km) Brightness Sun altitude
Rises 16:22:18 0° 219° (SW) 4,914 10.1 65.9°
Reaches altitude 10° 16:25:30 10° 217° (SW) 3,918 9.8 66.5°
Maximum altitude 16:35:28 70° 136° (SE) 1,719 11.7 68.1°
Drops below altitude 10° 16:45:07 10° 55° (NE) 3,806 9.8 69.6°
Sets 16:48:11 0° 53° (NE) 4,769 10.1 70.1°
